Location: Deurze
(52.9838°N, 6.6090°E)
Time: 18:41:51
(UTC+00:00)

CZ-4B R/B - Pass Details

Date: 11 March 2026
Orbit: 808 x 879 km, 98.9° (Epoch: 20 April)

Event Time Altitude Azimuth Distance (km) Brightness Sun altitude
Exits shadow 18:23:48 - 115° (ESE) 2,459 5.0 -8.8°
Reaches altitude 10° 18:23:59 10° 114° (ESE) 2,401 5.0 -8.9°
Maximum altitude 18:28:24 28° 57° (ENE) 1,506 4.1 -9.5°
Drops below altitude 10° 18:32:53 10° 1° (N) 2,440 5.7 -10.2°
Sets 18:35:33 0° 350° (N) 3,388 6.6 -10.6°
